weather.gov     
National Weather Service

Regional Weather Roundup
NWS Homepage
This page is being discontinued on March 12, 2014.
The same data is available at this site. Please update your bookmarks.
Thank you, and we apologize for the inconvenience.
Please send an email to SR-SRH.Webmaster@noaa.gov with any concerns.


Current Version
Previous Version:    01  02  03  04  05  06  07  08  09  10  11  12  13  14  15  16  17  18  19  20  21  22  23  24  25  26  27  28  29  30  
   31  32  33  34  35  36  37  38  39  40  41  42  43  44  45  46  47  48  49  50  51  52  53  54  55  56  57  58  59  60  
[Printable]
903
ASUS44 KOHX 210815
RWROHX
MIDDLE TENNESSEE HOURLY WEATHER ROUNDUP
NATIONAL WEATHER SERVICE NASHVILLE TN
300 AM CDT THU AUG 21 2014

NOTE: "FAIR" INDICATES FEW OR NO CLOUDS BELOW 12,000 FEET WITH
NO SIGNIFICANT WEATHER AND/OR OBSTRUCTIONS TO VISIBILITY.

* THESE REPORTS ARE NOT UNDER NWS QUALITY CONTROL AND MAY NOT
  REPORT WEATHER SUCH AS PRECIPITATION AND FOG.


TNZ005>011-023>034-057-059-062>066-078-080-210900
...NORTHERN MIDDLE TENNESSEE...

CITY           SKY/WX    TMP DP  RH WIND       PRES   REMARKS
CLARKSVILLE    PTCLDY    70  69  97 CALM      30.05F
CROSSVILLE     PTCLDY    68  62  81 CALM      30.15S
GALLATIN         N/A     68  68 100 CALM      30.08F
NASHVILLE      CLEAR     71  69  93 CALM      30.07F
PORTLAND       CLEAR     70  66  88 S6        30.06
SMYRNA         CLEAR     70  69  96 CALM      30.08F
SPARTA         CLEAR     66  66 100 CALM      30.10S
$$
TNZ056-058-060-061-075>077-079-093>097-210900
...SOUTHERN MIDDLE TENNESSEE...

CITY           SKY/WX    TMP DP  RH WIND       PRES   REMARKS
COLUMBIA       CLEAR     70  70 100 CALM      30.07S
FAYETTEVILLE   CLEAR     72  66  83 S5        30.10S
LEWISBURG      CLEAR     69  66  90 CALM      30.08S
MCMINNVILLE    CLEAR     68  68 100 CALM      30.10S
MURFREESBORO   CLEAR     70  68  93 CALM      30.07F
SHELBYVILLE    CLEAR     70  70 100 CALM      30.10S
TULLAHOMA      CLEAR     70  66  88 CALM      30.12R
WINCHESTER     CLEAR     70  66  88 SE3       30.10F
$$


...KEY TO REMARKS...
VSB - VISIBILITY IN MILES
WCI - WIND CHILL INDEX
HX  - HEAT INDEX





U.S. Dept. of Commerce
NOAA National Weather Service
1325 East West Highway
Silver Spring, MD 20910
E-mail: w-nws.webmaster@noaa.gov
Page last modified: May 16, 2007
NATIONAL WEATHER SERVICE: for Safety, for Work, for Fun - FOR LIFE